Show Low, AZ

12:32 AM MST on September 27, 2016 (GMT -0700)
Show Low Municipal

Weather History for KSOW - December, 2012

Change the Weather History Date:

Monday, December 10, 2012

  Actual Average Record
Temperature  
Mean Temperature 24 °F -  
Max Temperature 39 °F 44 °F 65 °F (1987)
Min Temperature 8 °F 24 °F -7 °F (1978)
Degree Days  
Heating Degree Days 42    
Moisture  
Dew Point 0 °F    
Average Humidity 39    
Maximum Humidity 62    
Minimum Humidity 20    
Precipitation  
Precipitation 0.00 in - - ()
Sea Level Pressure  
Sea Level Pressure 30.15 in    
Wind  
Wind Speed 6 mph (NNE)    
Max Wind Speed 13 mph    
Max Gust Speed 16 mph    
Visibility 10 miles    
Events Snow    
Averages and records for this station are not official NWS values.
T = Trace of Precipitation, MM = Missing Value Source: NWS Daily Summary

Daily Weather History Graph

Daily Weather History Graph

Search for Another Location

Airport or City:

Trip Planner

Search our weather history database for the weather conditions in past years. The results will help you decide how hot, cold, wet, or windy it might be!

Date:

Astronomy

Dec. 10, 2012 Rise Set
Actual Time 7:15 AM MST 5:10 PM MST
Civil Twilight 6:47 AM MST 5:38 PM MST
Nautical Twilight 6:16 AM MST 6:09 PM MST
Astronomical Twilight 5:46 AM MST 6:40 PM MST
Moon 4:07 AM MST (12/10) 2:58 PM MST (12/10)
Length of Visible Light 10h 50m
Length of Day
9h 54m
Waning Crescent, 10% of the Moon is Illuminated
Dec 10
Waning Crescent
Dec 13
New
Dec 19
First Quarter
Dec 28
Full
Jan 4
Last Quarter

Hourly Weather History & Observations

Time (MST) Temp. Windchill Dew Point Humidity Pressure Visibility Wind Dir Wind Speed Gust Speed Precip Events Conditions
12:15 AM 15.8 °F 3.4 °F -0.4 °F 49% 30.18 in 10.0 mi NE 10.4 mph - N/A   Clear
12:35 AM 15.8 °F 6.1 °F -0.4 °F 49% 30.18 in 10.0 mi NE 6.9 mph - N/A   Clear
12:55 AM 15.8 °F 5.1 °F -0.4 °F 49% 30.17 in 10.0 mi NE 8.1 mph - N/A   Clear
1:15 AM 15.8 °F 4.2 °F -0.4 °F 49% 30.17 in 10.0 mi NE 9.2 mph - N/A   Clear
1:35 AM 14.0 °F 2.9 °F -0.4 °F 53% 30.17 in 10.0 mi NNE 8.1 mph - N/A   Clear
1:55 AM 14.0 °F 5.1 °F -2.2 °F 49% 30.18 in 10.0 mi NNE 5.8 mph - N/A   Clear
2:15 AM 14.0 °F 3.9 °F -2.2 °F 49% 30.17 in 10.0 mi NE 6.9 mph - N/A   Clear
2:35 AM 14.0 °F 6.5 °F -0.4 °F 53% 30.17 in 10.0 mi East 4.6 mph - N/A   Clear
2:55 AM 14.0 °F 8.2 °F -2.2 °F 49% 30.18 in 10.0 mi NNE 3.5 mph - N/A   Clear
3:15 AM 14.0 °F 8.2 °F -2.2 °F 49% 30.18 in 10.0 mi ENE 3.5 mph - N/A   Clear
3:35 AM 14.0 °F 6.5 °F -2.2 °F 49% 30.18 in 10.0 mi ENE 4.6 mph - N/A   Clear
3:55 AM 15.8 °F 10.2 °F -2.2 °F 45% 30.17 in 10.0 mi NE 3.5 mph - N/A   Clear
4:15 AM 15.8 °F - -2.2 °F 45% 30.18 in 10.0 mi Calm Calm - N/A   Clear
4:35 AM 14.0 °F 8.2 °F -2.2 °F 49% 30.18 in 10.0 mi West 3.5 mph - N/A Snow Light Snow
4:55 AM 10.4 °F 4.0 °F -0.4 °F 62% 30.18 in 10.0 mi West 3.5 mph - N/A   Clear
5:15 AM 12.2 °F 4.3 °F -0.4 °F 57% 30.18 in 10.0 mi West 4.6 mph - N/A   Clear
5:35 AM 12.2 °F - -0.4 °F 57% 30.18 in 10.0 mi Calm Calm - N/A   Clear
5:55 AM 12.2 °F - -0.4 °F 57% 30.18 in 10.0 mi Calm Calm - N/A   Clear
6:15 AM 10.4 °F - -0.4 °F 62% 30.18 in 10.0 mi Calm Calm - N/A   Clear
6:35 AM 10.4 °F - -0.4 °F 62% 30.19 in 10.0 mi Calm Calm - N/A   Clear
6:55 AM 12.2 °F 6.1 °F -0.4 °F 57% 30.18 in 10.0 mi NNE 3.5 mph - N/A   Clear
7:15 AM 8.6 °F 0.1 °F -2.2 °F 62% 30.18 in 10.0 mi NNE 4.6 mph - N/A   Clear
7:35 AM 8.6 °F 0.1 °F -2.2 °F 62% 30.19 in 10.0 mi NE 4.6 mph - N/A   Clear
7:55 AM 10.4 °F - -2.2 °F 57% 30.20 in 10.0 mi Calm Calm - N/A   Clear
8:15 AM 15.8 °F 8.6 °F -4.0 °F 41% 30.20 in 10.0 mi East 4.6 mph - N/A   Clear
8:35 AM 17.6 °F 12.3 °F -2.2 °F 42% 30.21 in 10.0 mi NE 3.5 mph - N/A   Clear
8:55 AM 21.2 °F 14.9 °F -2.2 °F 36% 30.22 in 10.0 mi NNE 4.6 mph - N/A   Clear
9:15 AM 23.0 °F 13.9 °F -2.2 °F 33% 30.22 in 10.0 mi NE 8.1 mph - N/A   Clear
9:35 AM 24.8 °F 16.9 °F -0.4 °F 34% 30.22 in 10.0 mi NE 6.9 mph - N/A   Clear
9:55 AM 26.6 °F 18.2 °F -2.2 °F 29% 30.22 in 10.0 mi NE 8.1 mph - N/A   Clear
10:15 AM 28.4 °F 20.4 °F -4.0 °F 25% 30.22 in 10.0 mi NE 8.1 mph - N/A   Clear
10:35 AM 28.4 °F 22.2 °F -2.2 °F 27% 30.22 in 10.0 mi NNE 5.8 mph - N/A   Clear
10:55 AM 30.2 °F 21.3 °F -2.2 °F 25% 30.21 in 10.0 mi North 10.4 mph - N/A   Clear
11:15 AM 32.0 °F 23.6 °F -2.2 °F 23% 30.21 in 10.0 mi North 10.4 mph - N/A   Clear
11:35 AM 32.0 °F 23.6 °F -2.2 °F 23% 30.21 in 10.0 mi North 10.4 mph - N/A   Clear
11:55 AM 32.0 °F 24.2 °F -4.0 °F 21% 30.20 in 10.0 mi North 9.2 mph - N/A   Clear
12:15 PM 32.0 °F 22.5 °F -4.0 °F 21% 30.19 in 10.0 mi North 12.7 mph - N/A   Clear
12:35 PM 35.6 °F 28.0 °F -2.2 °F 20% 30.17 in 10.0 mi NNE 10.4 mph 16.1 mph N/A   Clear
12:55 PM 35.6 °F 28.6 °F -2.2 °F 20% 30.16 in 10.0 mi NNE 9.2 mph 16.1 mph N/A   Clear
1:15 PM 35.6 °F 28.0 °F -2.2 °F 20% 30.15 in 10.0 mi North 10.4 mph - N/A   Clear
1:35 PM 35.6 °F 28.0 °F -0.4 °F 22% 30.14 in 10.0 mi North 10.4 mph - N/A   Clear
1:55 PM 35.6 °F 28.0 °F -0.4 °F 22% 30.13 in 10.0 mi NNE 10.4 mph - N/A   Clear
2:15 PM 37.4 °F 32.1 °F 1.4 °F 22% 30.12 in 10.0 mi NE 6.9 mph - N/A   Clear
2:35 PM 39.2 °F 32.0 °F 3.2 °F 22% 30.12 in 10.0 mi NNE 11.5 mph - N/A   Clear
2:55 PM 39.2 °F 33.6 °F 5.0 °F 24% 30.12 in 10.0 mi NE 8.1 mph 16.1 mph N/A   Clear
3:15 PM 39.2 °F 33.0 °F 5.0 °F 24% 30.12 in 10.0 mi NNE 9.2 mph - N/A   Clear
3:35 PM 39.2 °F 34.2 °F 5.0 °F 24% 30.11 in 10.0 mi North 6.9 mph - N/A   Clear
3:55 PM 39.2 °F 34.2 °F 5.0 °F 24% 30.11 in 10.0 mi North 6.9 mph - N/A   Clear
4:15 PM 37.4 °F 32.1 °F 3.2 °F 24% 30.10 in 10.0 mi North 6.9 mph - N/A   Clear
4:35 PM 37.4 °F 32.8 °F 1.4 °F 22% 30.10 in 10.0 mi NNW 5.8 mph - N/A   Clear
4:55 PM 35.6 °F 31.7 °F 1.4 °F 24% 30.09 in 10.0 mi NNW 4.6 mph - N/A   Clear
5:15 PM 32.0 °F 27.5 °F 1.4 °F 27% 30.09 in 10.0 mi NNW 4.6 mph - N/A   Clear
5:35 PM 32.0 °F 27.5 °F 1.4 °F 27% 30.09 in 10.0 mi NW 4.6 mph - N/A   Clear
5:55 PM 30.2 °F 24.3 °F 1.4 °F 29% 30.10 in 10.0 mi NNW 5.8 mph - N/A   Clear
6:15 PM 28.4 °F - 3.2 °F 34% 30.10 in 10.0 mi Calm Calm - N/A   Clear
6:35 PM 26.6 °F - 1.4 °F 34% 30.11 in 10.0 mi Calm Calm - N/A   Clear
6:55 PM 26.6 °F - 1.4 °F 34% 30.11 in 10.0 mi Calm Calm - N/A   Clear
7:15 PM 26.6 °F 22.6 °F 1.4 °F 34% 30.11 in 10.0 mi East 3.5 mph - N/A   Clear
7:35 PM 26.6 °F 21.2 °F 1.4 °F 34% 30.10 in 10.0 mi ESE 4.6 mph - N/A   Clear
7:55 PM 24.8 °F 20.5 °F 3.2 °F 40% 30.10 in 10.0 mi ESE 3.5 mph - N/A   Clear
8:15 PM 24.8 °F - 3.2 °F 40% 30.11 in 10.0 mi Calm Calm - N/A   Clear
8:35 PM 24.8 °F - 3.2 °F 40% 30.11 in 10.0 mi Calm Calm - N/A   Clear
8:55 PM 23.0 °F - 1.4 °F 39% 30.10 in 10.0 mi Calm Calm - N/A   Clear
9:15 PM 23.0 °F - 1.4 °F 39% 30.10 in 10.0 mi Calm Calm - N/A   Clear
9:35 PM 23.0 °F - 1.4 °F 39% 30.10 in 10.0 mi Calm Calm - N/A   Clear
9:55 PM 21.2 °F - 1.4 °F 42% 30.10 in 10.0 mi Calm Calm - N/A   Clear
10:15 PM 21.2 °F - 1.4 °F 42% 30.11 in 10.0 mi Calm Calm - N/A   Clear
10:35 PM 23.0 °F 18.4 °F 3.2 °F 43% 30.11 in 10.0 mi ESE 3.5 mph - N/A   Clear
10:55 PM 24.8 °F 20.5 °F 5.0 °F 43% 30.10 in 10.0 mi ESE 3.5 mph - N/A   Clear
11:15 PM 23.0 °F 18.4 °F 5.0 °F 46% 30.11 in 10.0 mi East 3.5 mph - N/A   Clear
11:35 PM 17.6 °F - 1.4 °F 49% 30.11 in 10.0 mi Calm Calm - N/A   Clear
11:55 PM 19.4 °F - 1.4 °F 46% 30.10 in 10.0 mi Calm Calm - N/A   Clear